[[{"header":{"parameterUnit":"m.s-1","parameterCategory":1,"la1":30.2991,"la2":30.254,"lo1":-89.0895,"lo2":-89.0444,"dy":0.0017,"dx":0.0017,"nx":28,"ny":28,"refTime":"2025-11-30T03:00:00:Z","depth":0,"parameterNumber":2,"parameterNumberName":"U-component_of_WINDS"},"data":[0,0,0,0,0,0,0,0,0,0,0,0,0,0,0,0,0,0,0,0,0,0,0,0,0,0,0,0,0,0,0,0,0,0,0,0,0,0,0,0,0,0,0,0,0,0,0,0,0,0,0,0,0,0,0,0,0,0,-5.422,-5.4222,0,-5.4423,-5.4426,-5.4428,-5.443,-5.4427,-5.4424,-5.4422,-5.4629,-5.4637,-5.4645,0,0,0,0,0,0,0,0,0,0,0,0,0,-5.3834,-5.3841,-5.422,-5.4222,-5.4225,-5.4423,-5.4426,-5.4429,-5.443,-5.4427,-5.4424,-5.4421,-5.4627,-5.4636,-5.4646,0,0,0,0,0,0,0,0,0,0,0,0,0,-5.4016,-5.3843,-5.4219,-5.4249,-5.4254,-5.4422,-5.4426,-5.4429,-5.4431,-5.4427,-5.4423,-5.4419,-5.4624,-5.4635,-5.4647,-5.4799,0,0,-5.4684,-5.4689,0,0,0,0,0,0,0,0,-5.4005,-5.403,-5.4243,-5.4248,-5.4253,-5.4397,-5.4366,-5.4553,-5.4432,-5.4364,-5.4422,-5.4417,-5.4555,-5.4573,-5.4619,-5.4808,-5.4817,-5.4685,-5.4692,-5.4697,-5.47,0,0,0,0,0,0,0,-5.3993,-5.4021,-5.43,-5.4246,-5.4252,-5.4253,-5.4275,-5.4401,-5.4479,-5.4369,-5.437,-5.4394,-5.4557,-5.4608,-5.4624,-5.482,-5.4684,-5.4695,-5.4702,-5.4707,-5.5145,-5.5149,0,0,0,0,0,0,-5.3974,-5.401,-5.4294,-5.4306,-5.4117,-5.4263,-5.4288,-5.4355,-5.4477,-5.4492,-5.4397,-5.4393,-5.4589,-5.461,-5.4631,-5.4816,-5.4697,-5.4708,-5.4715,-5.514,-5.5146,-5.5151,0,0,0,0,0,0,-5.3966,-5.3999,-5.4286,-5.4159,-5.4195,-5.4274,-5.435,-5.4361,-5.4411,-5.4499,-5.4512,-5.4434,-5.4587,-5.4615,-5.4757,-5.4823,-5.4713,-5.4724,-5.5135,-5.5142,-5.5148,-5.5186,0,0,0,0,0,0,-5.3954,-5.3996,-5.4054,-5.416,-5.4202,-5.4407,-5.4354,-5.4368,-5.4432,-5.4429,-5.4537,-5.4551,-5.4586,-5.4739,-5.4769,-5.4837,-5.4733,-5.5129,-5.5138,-5.5146,-5.5179,-5.5193,-5.5205,0,0,0,0,0,-5.3941,-5.4056,-5.4057,-5.4091,-5.4276,-5.4411,-5.4435,-5.4473,-5.4437,-5.4496,-5.4553,-5.4547,-5.4812,-5.4754,-5.4787,-5.486,-5.5125,-5.5136,-5.5145,-5.5173,-5.519,-5.5205,0,0,0,0,0,0,-5.3954,-5.407,-5.4072,-5.4225,-5.4308,-5.4411,-5.4485,-5.449,-5.4585,-5.4578,-5.4622,-5.4647,-5.4788,-5.484,-5.4772,-5.5014,-5.4964,-5.4982,-5.4974,-5.4991,-5.5004,-5.4986,-5.4743,0,0,0,0,0,-5.3975,-5.4075,-5.4172,-5.4297,-5.4339,-5.4406,-5.4466,-5.4489,-5.4577,-5.4611,-5.4678,-5.4764,-5.4866,-5.4932,-5.5032,-5.5189,-5.5212,-5.5256,-5.5269,-5.5279,-5.5292,-5.5378,-5.5398,-5.5184,-5.5184,-5.5184,0,0,-5.4018,-5.4094,-5.4154,-5.4302,-5.4369,-5.4471,-5.4435,-5.4545,-5.4621,-5.4628,-5.4765,-5.4819,-5.4917,-5.5068,-5.5137,-5.5114,-5.5357,-5.5292,-5.5299,-5.5307,-5.5391,-5.5411,-5.5429,-5.5191,-5.5189,-5.5188,0,0,-5.4149,-5.4218,-5.4329,-5.4398,-5.4501,-5.4545,-5.4572,-5.4676,-5.4711,-5.4851,-5.4858,-5.4951,-5.5127,-5.5197,-5.5255,-5.5418,-5.5416,-5.5449,-5.5515,-5.5599,-5.5616,-5.5631,-5.5686,-5.5706,-5.5463,-5.5463,-5.5463,0,-5.4189,-5.4343,-5.4386,-5.4497,-5.4561,-5.4575,-5.4688,-5.4753,-5.4883,-5.4927,-5.4901,-5.5123,-5.5191,-5.5357,-5.5397,-5.5445,-5.5476,-5.5434,-5.561,-5.5626,-5.564,-5.5694,-5.5715,-5.5466,-5.5466,-5.5465,-5.5465,0,-5.4387,-5.4495,-5.4573,-5.4699,-5.4773,-5.4884,-5.4944,-5.5015,-5.5033,-5.508,-5.5223,-5.5306,-5.5422,-5.5465,-5.5483,-5.5635,-5.5617,-5.5601,-5.5551,-5.5663,-5.5714,-5.5735,-5.547,-5.5469,-5.5468,-5.5468,0,0,-5.4525,-5.4677,-5.4704,-5.4761,-5.4878,-5.4962,-5.5076,-5.519,-5.5249,-5.534,-5.5435,-5.5586,-5.5572,-5.5639,-5.5666,-5.5741,-5.5862,-5.5715,-5.5718,-5.5736,-5.6032,-5.604,-5.6063,-5.5864,-5.5869,-5.5872,-5.6023,0,-5.4666,-5.4866,-5.491,-5.5082,-5.5182,-5.5199,-5.5298,-5.5381,-5.543,-5.5522,-5.5577,-5.5682,-5.5657,-5.5697,-5.5772,-5.5831,-5.5921,-5.5822,-5.5951,-5.5955,-5.5921,-5.609,-5.6099,-5.6236,-5.6043,-5.6046,-5.6049,0,-5.4854,-5.495,-5.5133,-5.5238,-5.5281,-5.5369,-5.5478,-5.5567,-5.5662,-5.5693,-5.5769,-5.579,-5.5909,-5.5858,-5.6023,-5.5954,-5.6012,-5.605,-5.6056,-5.6065,-5.6005,-5.61,-5.6282,-5.63,-5.6081,-5.6079,-5.6076,0,-5.4932,-5.5108,-5.524,-5.5289,-5.5416,-5.5477,-5.5533,-5.5624,-5.5691,-5.5788,-5.5831,-5.5941,-5.5999,-5.6084,-5.6134,-5.6093,-5.6295,-5.6248,-5.6322,-5.6321,-5.6359,-5.6355,-5.6548,-5.6404,-5.6403,-5.6403,-5.6403,0,-5.5081,-5.5191,-5.5277,-5.5357,-5.5482,-5.5533,-5.5655,-5.5711,-5.5793,-5.5885,-5.5909,-5.5995,-5.6059,-5.6154,-5.6195,-5.6324,-5.6352,-5.6379,-5.6388,-5.6374,-5.637,-5.6408,-5.6398,-5.6409,-5.6407,-5.6406,-5.6405,0,-5.5186,-5.5248,-5.5393,-5.5502,-5.5533,-5.5619,-5.5713,-5.5793,-5.5845,-5.5961,-5.5991,-5.6072,-5.6186,-5.6246,-5.6389,-5.6416,-5.656,-5.6566,-5.6527,-5.653,-5.6599,-5.659,-5.6819,-5.6851,-5.6689,-5.6691,-5.6692,0,-5.5275,-5.536,-5.5479,-5.5543,-5.56,-5.5702,-5.5771,-5.5827,-5.5897,-5.6014,-5.6079,-5.6195,-5.6289,-5.6471,-5.6542,-5.6652,-5.6658,-5.6731,-5.6674,-5.6658,-5.6654,-5.6647,-5.6655,-5.6738,-5.674,-5.6741,-5.6742,0,-5.5424,-5.5451,-5.5549,-5.5658,-5.574,-5.5829,-5.5917,-5.5968,-5.6038,-5.6117,-5.6234,-5.6307,-5.6454,-5.6568,-5.6684,-5.6742,-5.6754,-5.6761,-5.6783,-5.6767,-5.674,-5.6752,-5.655,-5.6754,-5.6752,-5.6752,-5.6751,-5.6751,-5.5521,-5.5597,-5.5693,-5.5802,-5.5875,-5.5957,-5.6037,-5.61,-5.6199,-5.6321,-5.635,-5.6473,-5.6569,-5.6726,-5.6788,-5.6886,-5.6871,-5.6904,-5.6911,-5.6917,-5.6918,-5.6729,-5.6908,-5.6908,-5.6907,-5.6907,-5.6907,0,-5.5668,-5.5731,-5.5831,-5.5954,-5.604,-5.6047,-5.6146,-5.6217,-5.6325,-5.6414,-5.6507,-5.6643,-5.6754,-5.6837,-5.6951,-5.7013,-5.7022,-5.7041,-5.7034,-5.7048,-5.6927,-5.6894,-5.7032,-5.7032,-5.7032,-5.7032,-5.7032,-5.7032,-5.5754,-5.5883,-5.5923,-5.6089,-5.6153,-5.6273,-5.6329,-5.6406,-5.6477,-5.6626,-5.672,-5.6773,-5.686,-5.6982,-5.7085,-5.7107,-5.7146,-5.7164,-5.7185,-5.707,-5.7056,-5.7043,-5.7013,-5.7173,-5.7174,-5.7298,-5.7299,-5.73]},{"header":{"parameterUnit":"m.s-1","parameterCategory":1,"la1":30.2991,"la2":30.254,"lo1":-89.0895,"lo2":-89.0444,"dy":0.0017,"dx":0.0017,"nx":28,"ny":28,"refTime":"2025-11-30T03:00:00:Z","depth":0,"parameterNumber":3,"parameterNumberName":"V-component_of_WINDS"},"data":[0,0,0,0,0,0,0,0,0,0,0,0,0,0,0,0,0,0,0,0,0,0,0,0,0,0,0,0,0,0,0,0,0,0,0,0,0,0,0,0,0,0,0,0,0,0,0,0,0,0,0,0,0,0,0,0,0,0,2.7503,2.7503,0,2.747,2.7469,2.7469,2.7389,2.7387,2.7386,2.7384,2.7353,2.7353,2.7354,0,0,0,0,0,0,0,0,0,0,0,0,0,2.7501,2.7501,2.7503,2.7503,2.7502,2.747,2.7469,2.7469,2.7389,2.7387,2.7385,2.7383,2.7352,2.7353,2.7354,0,0,0,0,0,0,0,0,0,0,0,0,0,2.7488,2.7502,2.7503,2.7459,2.7454,2.747,2.7469,2.7469,2.739,2.7387,2.7385,2.7382,2.7352,2.7353,2.7354,2.7411,0,0,2.7357,2.7358,0,0,0,0,0,0,0,0,2.7489,2.7489,2.7466,2.7462,2.7457,2.7431,2.7457,2.745,2.739,2.7414,2.7384,2.7381,2.7381,2.7379,2.7379,2.741,2.7408,2.7358,2.7358,2.7359,2.7359,0,0,0,0,0,0,0,2.749,2.749,2.749,2.7465,2.746,2.7441,2.7437,2.7455,2.7412,2.7412,2.7406,2.7403,2.7378,2.7378,2.7377,2.7408,2.7358,2.7359,2.7359,2.736,2.7484,2.7487,0,0,0,0,0,0,2.7497,2.7491,2.7491,2.7489,2.7467,2.7443,2.7438,2.7442,2.7412,2.7405,2.7405,2.74,2.7377,2.7376,2.7376,2.744,2.7359,2.736,2.736,2.7482,2.7485,2.7488,0,0,0,0,0,0,2.7497,2.7498,2.7492,2.7488,2.7486,2.7446,2.7451,2.7442,2.7442,2.7407,2.7399,2.7413,2.7375,2.7374,2.7403,2.7438,2.736,2.7361,2.7478,2.7483,2.7486,2.7569,0,0,0,0,0,0,2.7498,2.7498,2.7519,2.7489,2.7487,2.7519,2.7453,2.7444,2.7444,2.7436,2.7412,2.7405,2.7373,2.7402,2.7404,2.7438,2.7362,2.7475,2.748,2.7485,2.7563,2.7576,2.7586,0,0,0,0,0,2.7498,2.7544,2.752,2.7521,2.7511,2.7521,2.752,2.7481,2.7447,2.7468,2.7445,2.7406,2.7434,2.7405,2.7407,2.7442,2.7473,2.7479,2.7485,2.7558,2.7573,2.7586,0,0,0,0,0,0,2.7579,2.7539,2.7512,2.755,2.754,2.7508,2.7532,2.7498,2.7498,2.7491,2.7444,2.7439,2.7474,2.7461,2.7429,2.7496,2.7447,2.7454,2.7502,2.7516,2.7528,2.7529,2.7363,0,0,0,0,0,2.7602,2.7612,2.7577,2.7614,2.761,2.7573,2.7575,2.7547,2.7534,2.7529,2.7509,2.7499,2.7505,2.751,2.7515,2.7562,2.7555,2.7587,2.7599,2.7608,2.7614,2.7638,2.7651,2.7507,2.7507,2.7507,0,0,2.7648,2.7628,2.7637,2.763,2.7618,2.7631,2.7569,2.7585,2.7594,2.7532,2.7557,2.7542,2.7528,2.7566,2.7582,2.7556,2.7653,2.7616,2.7624,2.7624,2.7645,2.7659,2.7671,2.7511,2.7511,2.751,0,0,2.7739,2.7725,2.7753,2.7743,2.7726,2.7701,2.7708,2.7681,2.7668,2.7693,2.7646,2.7657,2.767,2.7661,2.7659,2.7748,2.7712,2.7751,2.781,2.7834,2.7845,2.7855,2.7886,2.7898,2.7757,2.7757,2.7757,0,2.7798,2.7815,2.7773,2.7792,2.779,2.7734,2.7763,2.7756,2.7742,2.7742,2.7714,2.7728,2.7715,2.775,2.7772,2.7772,2.7779,2.7752,2.7847,2.7856,2.7865,2.7894,2.7906,2.7762,2.7762,2.7761,2.7761,0,2.7889,2.7901,2.7927,2.7913,2.7915,2.7939,2.7902,2.7909,2.7881,2.7859,2.7885,2.7867,2.7866,2.7873,2.7846,2.7905,2.7889,2.7855,2.7805,2.7884,2.791,2.7921,2.7769,2.7767,2.7766,2.7765,0,0,2.8028,2.7992,2.8002,2.7995,2.7973,2.7982,2.8004,2.8003,2.8009,2.8002,2.802,2.8032,2.8,2.7997,2.7969,2.7991,2.8061,2.7953,2.7952,2.7973,2.8124,2.8149,2.8162,2.8038,2.804,2.8042,2.8125,0,2.8112,2.8146,2.811,2.8152,2.8163,2.8111,2.813,2.812,2.81,2.8108,2.8087,2.8096,2.8054,2.8051,2.807,2.8049,2.8091,2.8043,2.8054,2.8055,2.8057,2.8176,2.8202,2.8282,2.8135,2.8137,2.8138,0,2.8214,2.821,2.8254,2.8229,2.8232,2.825,2.8246,2.8253,2.8241,2.8225,2.8223,2.8189,2.821,2.8163,2.8191,2.8159,2.8162,2.8153,2.8155,2.8153,2.81,2.8177,2.8306,2.8318,2.8154,2.8153,2.8152,0,2.831,2.8316,2.8342,2.8339,2.8311,2.8324,2.8314,2.8298,2.83,2.8297,2.8298,2.8298,2.8298,2.83,2.8267,2.8236,2.83,2.825,2.8287,2.8288,2.8302,2.8301,2.8432,2.8307,2.8306,2.8306,2.8306,0,2.8406,2.8434,2.8385,2.8401,2.8432,2.8391,2.8422,2.8406,2.8393,2.8406,2.8362,2.8375,2.8332,2.8341,2.8316,2.8343,2.8344,2.8332,2.8325,2.8335,2.8337,2.8335,2.8328,2.8309,2.8309,2.8308,2.8307,0,2.8517,2.8486,2.8511,2.8482,2.8476,2.85,2.8476,2.849,2.8468,2.8485,2.8487,2.8453,2.8462,2.843,2.8433,2.8416,2.8456,2.8441,2.846,2.8455,2.8494,2.849,2.8627,2.8643,2.8509,2.8511,2.8512,0,2.858,2.8601,2.8574,2.8579,2.8571,2.8579,2.8581,2.8542,2.8545,2.8533,2.8549,2.8553,2.8554,2.8571,2.8547,2.855,2.8533,2.8581,2.8533,2.8542,2.8532,2.8531,2.8532,2.859,2.8592,2.8593,2.8594,0,2.8695,2.8678,2.8681,2.8679,2.8682,2.8679,2.8673,2.868,2.8638,2.8644,2.8652,2.8653,2.8656,2.8661,2.8659,2.8649,2.8615,2.861,2.8619,2.8628,2.8638,2.8632,2.8486,2.8607,2.8605,2.8604,2.8604,2.8603,2.8783,2.8799,2.8782,2.8788,2.8779,2.8774,2.8786,2.8766,2.8771,2.877,2.8747,2.8759,2.8747,2.874,2.8733,2.8743,2.872,2.8733,2.8736,2.874,2.8746,2.8638,2.8742,2.8742,2.8742,2.8741,2.8741,0,2.8895,2.8882,2.8887,2.8879,2.8884,2.8851,2.8843,2.8849,2.886,2.8851,2.8853,2.8862,2.8867,2.8844,2.8846,2.8858,2.8843,2.886,2.8858,2.8856,2.8766,2.8758,2.8872,2.8872,2.8872,2.8872,2.8872,2.8872,2.8953,2.8977,2.8959,2.8979,2.8966,2.8977,2.8975,2.8971,2.8963,2.8974,2.8978,2.8963,2.8949,2.8949,2.8953,2.8946,2.8948,2.8971,2.8959,2.8875,2.8862,2.885,2.8842,2.8972,2.8972,2.9047,2.9048,2.9049]}]]